DW9421 Weather Reports


time (UTC)temp
F
wind
direction
speed
knots
gust
knots
rain 1hr
in
rain 24hr
in
rain mn
in
humidity
%
barometer
mb
20260504081513 50 360 0.0 0.0 0.00 0.00 0.00 69 1015.6
20260504050113 49 360 0.0 0.0 0.00 0.00 0.00 64 1016.0
20260504044555 49 360 0.0 0.0 0.00 0.00 0.00 62 1016.0
20260504043101 49 360 0.0 0.0 0.00 0.00 0.00 60 1015.9
20260504041552 49 360 0.0 0.0 0.00 0.00 0.00 59 1015.8
20260504040056 49 360 0.0 0.0 0.00 0.00 0.00 57 1015.8
20260504034558 49 360 0.0 0.0 0.00 0.00 0.00 57 1016.0
20260504033053 49 360 0.0 0.0 0.00 0.00 0.00 57 1015.7
20260504031557 49 360 0.0 0.0 0.00 0.00 0.00 56 1015.6
20260504030049 50 360 0.0 0.0 0.00 0.00 0.00 57 1015.5
20260504024549 50 360 0.0 0.0 0.00 0.00 0.00 55 1015.4
20260504023048 50 360 0.0 0.0 0.00 0.00 0.00 55 1015.3
20260504021548 51 360 0.0 0.0 0.00 0.00 0.00 55 1015.3
20260504020059 51 360 0.0 0.0 0.00 0.00 0.00 52 1015.2
20260504014551 52 360 0.0 0.0 0.00 0.00 0.00 53 1015.2
20260504013049 52 360 0.0 0.0 0.00 0.00 0.00 52 1015.1
20260504011548 53 360 0.0 0.0 0.00 0.00 0.00 52 1015.0
20260504010046 54 360 0.0 0.0 0.00 0.00 0.00 47 1015.0
20260504004545 55 360 0.0 0.0 0.00 0.00 0.00 48 1014.8
20260504003047 55 360 0.0 0.0 0.00 0.00 0.00 45 1014.7
20260504001544 56 360 0.0 0.0 0.00 0.00 0.00 41 1014.6
20260504000047 57 360 0.0 0.0 0.00 0.00 0.00 38 1014.5
20260503234543 58 360 0.0 0.0 0.00 0.00 0.00 37 1014.3
20260503233043 58 360 0.0 3.5 0.00 0.00 0.00 37 1014.2
20260503231543 59 360 0.0 3.5 0.00 0.00 0.00 37 1014.1
20260503230052 59 360 0.0 3.5 0.00 0.00 0.00 35 1014.1
20260503224541 59 360 0.0 2.6 0.00 0.00 0.00 35 1014.2
20260503223039 59 360 0.0 2.6 0.00 0.00 0.00 34 1014.2
20260503221538 59 360 0.9 4.3 0.00 0.00 0.00 34 1014.3
20260503220037 59 360 0.0 5.2 0.00 0.00 0.00 34 1014.2
20260503214542 59 360 0.0 2.6 0.00 0.00 0.00 34 1014.3
20260503213038 59 360 0.0 3.5 0.00 0.00 0.00 33 1014.4
20260503211548 59 360 1.7 7.8 0.00 0.00 0.00 32 1014.2
20260503210036 59 360 0.9 5.2 0.00 0.00 0.00 36 1014.5
20260503204538 60 360 0.9 6.1 0.00 0.00 0.00 35 1014.4
20260503203043 60 360 0.9 7.8 0.00 0.00 0.00 35 1014.5
20260503201535 60 360 0.9 4.3 0.00 0.00 0.00 34 1014.7
20260503200050 60 360 0.9 5.2 0.00 0.00 0.00 35 1014.8
20260503194533 60 360 0.9 7.0 0.00 0.00 0.00 33 1015.0
20260503193035 60 360 0.9 6.1 0.00 0.00 0.00 35 1015.2
20260503191530 60 360 1.7 7.8 0.00 0.00 0.00 36 1015.4
20260503190026 59 360 0.9 7.0 0.00 0.00 0.00 38 1015.7
20260503184533 58 360 0.0 5.2 0.00 0.00 0.00 39 1015.8
20260503183025 58 360 2.6 5.2 0.00 0.00 0.00 37 1016.0
20260503181524 58 360 0.9 5.2 0.00 0.00 0.00 37 1016.1
20260503180041 58 360 2.6 8.7 0.00 0.00 0.00 37 1016.2
20260503174525 57 360 1.7 8.7 0.00 0.00 0.00 40 1016.3
20260503173025 57 360 0.9 7.0 0.00 0.00 0.00 37 1016.5
20260503171517 56 360 0.9 7.8 0.00 0.00 0.00 38 1016.5